Regional Weather Roundup
Issued by NWS Burlington, VT

Current Version | Previous Version | Graphics & Text | Print | Product List | Glossary Off
Versions: 1 2 3 4 5 6 7 8 9 10 11 12 13 14 15 16 17 18 19 20 21 22 23 24 25 26 27 28 29 30 31 32 33 34 35 36 37 38 39 40 41 42 43 44 45 46 47 48 49 50

000
ASUS41 KBTV 261110
RWRBTV
VERMONT REGIONAL WEATHER ROUNDUP
NATIONAL WEATHER SERVICE BURLINGTON VT
700 AM EDT THU MAY 26 2016

NOTE: "FAIR" INDICATES FEW OR NO CLOUDS BELOW 12,000 FEET WITH NO
SIGNIFICANT WEATHER AND/OR OBSTRUCTIONS TO VISIBILITY.

* THESE REPORTS ARE NOT UNDER NWS QUALITY CONTROL AND/OR DO NOT
  REPORT WEATHER SUCH AS PRECIPITATION AND FOG.

VTZ001>019-261200-
_____VERMONT_____


CITY           SKY/WX    TMP DP  RH WIND       PRES   REMARKS
BURLINGTON     PTSUNNY   60  52  74 CALM      30.14R
MONTPELIER     CLOUDY    57  53  86 CALM      30.18R
MORRISVILLE    FAIR      55  51  86 CALM      30.16R
ST. JOHNSBURY*   N/A     53  51  93 MISG      30.13R
LYNDONVILLE*   FAIR      53  52  96 CALM      30.16R
MIDDLEBURY*    FAIR      57  57 100 CALM      30.14R
RUTLAND*       FAIR      56  52  86 E3        30.14R
SPRINGFIELD    FAIR      55  53  93 CALM      30.13R
HIGHGATE*      FAIR      56  51  84 CALM      30.14R
NEWPORT*       FAIR      55  50  82 CALM      30.15R
BENNINGTON     FAIR      57  54  89 N3        30.13R
SUTTON*          N/A     57 N/A N/A MISG        N/A

_____LAKE CHAMPLAIN_____


CITY           SKY/WX    TMP DP  RH WIND       PRES   REMARKS
COLCHESTER RF*   N/A     57  55  94 N6          N/A
DIAMOND ISL*     N/A     59  55  88 NE6         N/A

$$

NYZ007-026>031-035-052-083-087-261200-
_____NORTHERN NEW YORK_____


CITY           SKY/WX    TMP DP  RH WIND       PRES   REMARKS
PLATTSBURGH    CLOUDY    60  50  69 N7        30.14R
SARANAC LAKE   PTSUNNY   55  49  80 CALM      30.13R
MASSENA        MOSUNNY   59  50  72 E9        30.13R
OGDENSBURG*    SUNNY     61  55  82 E5        30.11R
WATERTOWN      MOSUNNY   58  54  86 E5        30.08S
FT DRUM        MOSUNNY   58  53  83 SE9       30.09R
ALBANY         PTSUNNY   62  56  80 CALM      30.13R
GLENS FALLS    MOSUNNY   60  55  83 CALM      30.13R

$$
NHZ002-005-011-261200-
_____NEW HAMPSHIRE_____


CITY           SKY/WX    TMP DP  RH WIND       PRES   REMARKS
LEBANON        MOSUNNY   57  53  86 NE3       30.12R
KEENE          SUNNY     55  54  94 S3        30.14R
MT WASHINGTON  MOSUNNY   45  27  49 NW40        N/A
PLYMOUTH       FAIR      62  55  76 W8        30.10S
WHITEFIELD     SUNNY     51  48  89 CALM      30.14R

$$

_____REGIONAL QUEBEC LOCATIONS_____


CITY           SKY/WX    TMP DP  RH WIND       PRES   REMARKS
MONTREAL       PTSUNNY   59  48  67 N7        30.15R
QUEBEC CITY    MOSUNNY   55  45  67 N7        30.10R
SHERBROOKE     SUNNY     52  48  87 W7        30.11F

_____REGIONAL ONTARIO LOCATIONS_____


CITY           SKY/WX    TMP DP  RH WIND       PRES   REMARKS
OTTAWA         MOSUNNY   57  50  77 E10       30.13R

______KEY______
VSB  - VISIBILITY IN MILES
WCI  - WIND CHILL INDEX
HX   - HEAT INDEX
$$
NNNN




USA.gov is the U.S. government's official web portal to all federal, state and local government web resources and services.